Lid_Strength_Index
5 4 4 4 4 4 4 4 4 3 3 2 2 3 3 3 4 5 5 5 4 4 3 2 1 1 0 0 0 0 1 1
5 5 4 4 4 5 5 5 4 4 4 4 4 4 3 4 3 3 4 4 3 3 2 1 1 0 -0 -0 0 1 1 0
5 5 4 5 5 5 5 5 5 5 4 4 4 4 3 3 4 4 4 4 4 4 3 2 2 2 1 0 0 1 1 1
5 5 5 5 5 5 5 5 5 5 4 4 4 3 3 4 4 4 4 4 3 3 3 3 3 3 2 2 1 1 2 1
5 5 5 5 5 4 4 5 5 5 4 4 4 5 5 4 4 4 4 4 4 4 4 4 4 4 4 3 2 2 2 2
5 4 4 5 5 5 4 4 5 4 4 4 5 5 5 4 4 4 4 4 4 4 4 5 5 6 5 5 5 5 4 4
3 3 4 5 4 4 4 4 5 4 5 5 5 6 6 6 6 6 6 5 5 5 6 7 7 7 6 6 6 6 7 6
3 3 4 5 5 5 5 5 5 5 5 6 6 6 6 7 7 8 8 8 8 8 8 9 8 8 8 7 8 7 7 7
3 3 4 5 5 5 5 5 6 6 6 6 6 6 7 7 8 9 9 10 10 9 10 9 9 9 9 9 8 8 8 7
3 4 5 5 5 5 5 6 6 6 7 7 7 7 8 8 8 9 9 10 10 10 10 10 10 10 10 10 10 10 9 9
4 4 5 5 5 5 6 6 6 7 6 6 7 7 8 8 8 10 10 11 10 10 10 10 10 11 10 11 11 10 10 10
4 4 5 6 6 6 6 7 7 7 7 6 7 8 8 9 9 10 10 10 10 10 11 11 11 11 11 12 12 11 11 11
4 5 6 6 6 6 7 7 7 8 7 7 8 8 8 9 10 10 10 10 10 11 11 11 11 11 12 12 12 12 13 13
5 6 6 6 7 8 8 8 8 8 8 8 8 9 9 10 10 10 10 10 11 11 11 12 12 12 13 12 12 12 13 12
6 6 6 7 8 8 9 9 9 9 9 10 10 10 10 10 10 10 10 10 11 12 12 12 12 12 13 13 12 13 13 13
6 7 7 8 9 9 9 10 9 9 10 10 10 10 10 10 11 10 10 10 11 12 12 13 13 13 13 14 13 14 15 15
7 8 8 10 10 10 10 9 9 9 10 11 11 11 11 12 11 11 11 11 12 13 13 13 14 14 15 15 14 15 16 17
9 9 10 10 9 9 10 10 9 10 11 11 11 11 12 12 11 11 12 12 13 13 14 14 14 15 15 15 15 14 15 17
10 10 10 9 9 9 10 10 11 11 11 12 11 11 12 12 12 12 12 12 13 14 14 14 15 15 16 16 15 15 15 16